Tracking 19903 objects as of 16-Oct-2019
HD Live streaming from Space Station
objects crossing your sky now

SL-16 DEB

Track SL-16 DEB now!
10-day predictions


NORAD ID: 39874
Int'l Code: 1993-016AY
Perigee: 723.3 km
Apogee: 878.5 km
Inclination: 70.9 °
Period: 100.7 minutes
Semi major axis: 7171 km
RCS: 0.0081 m2 (small)
Launch date: March 26, 1993
Source: Commonwealth of Independent States (former USSR) (CIS)
Launch site: TYURATAM MISSILE AND SPACE COMPLEX (TTMTR)

Note: This is SATELLITE DEBRIS
aabbcc
Your satellite tracking list
Your tracking list is empty




NASA's NSSDC Master Catalog

Two Line Element Set (TLE):
1 39874U 93016AY  19285.22133192  .00001520  00000-0  57773-3 0  9998
2 39874  70.9393 238.9952 0108243 191.9519 230.7138 14.29388440879220
Source of the keplerian elements: AFSPC